Year,Month,Day,Hour,Minute,Value (Times are PST for temperature in C)
2017,02,16,00,00,8.40
2017,02,16,00,01,8.40
2017,02,16,00,02,8.40
2017,02,16,00,03,8.40
2017,02,16,00,04,8.40
2017,02,16,00,05,8.40
2017,02,16,00,06,8.40
2017,02,16,00,07,8.40
2017,02,16,00,08,8.40
2017,02,16,00,09,8.40
2017,02,16,00,10,8.40
2017,02,16,00,11,8.40
2017,02,16,00,12,8.40
2017,02,16,00,13,8.50
2017,02,16,00,14,8.50
2017,02,16,00,15,8.50
2017,02,16,00,16,8.50
2017,02,16,00,17,8.40
2017,02,16,00,18,8.40
2017,02,16,00,19,8.40
2017,02,16,00,20,8.40
2017,02,16,00,21,8.40
2017,02,16,00,22,8.40
2017,02,16,00,23,8.40
2017,02,16,00,24,8.30
2017,02,16,00,25,8.30
2017,02,16,00,26,8.30
2017,02,16,00,27,8.30
2017,02,16,00,28,8.30
2017,02,16,00,29,8.30
2017,02,16,00,30,8.20
2017,02,16,00,31,8.20
2017,02,16,00,32,8.10
2017,02,16,00,33,8.10
2017,02,16,00,34,8.10
2017,02,16,00,35,8.00
2017,02,16,00,36,8.00
2017,02,16,00,37,7.90
2017,02,16,00,38,7.90
2017,02,16,00,39,7.90
2017,02,16,00,40,7.90
2017,02,16,00,41,7.90
2017,02,16,00,42,7.90
2017,02,16,00,43,7.90
2017,02,16,00,44,7.90
2017,02,16,00,45,7.80
2017,02,16,00,46,7.80
2017,02,16,00,47,7.80
2017,02,16,00,48,7.80
2017,02,16,00,49,7.80
2017,02,16,00,50,7.80
2017,02,16,00,51,7.70
2017,02,16,00,52,7.80
2017,02,16,00,53,7.80
2017,02,16,00,54,7.80
2017,02,16,00,55,7.80
2017,02,16,00,56,7.80
2017,02,16,00,57,7.70
2017,02,16,00,58,7.70
2017,02,16,00,59,7.70
2017,02,16,01,00,7.70
2017,02,16,01,01,7.70
2017,02,16,01,02,7.70
2017,02,16,01,03,7.60
2017,02,16,01,04,7.60
2017,02,16,01,05,7.60
2017,02,16,01,06,7.50
2017,02,16,01,07,7.50
2017,02,16,01,08,7.40
2017,02,16,01,09,7.40
2017,02,16,01,10,7.40
2017,02,16,01,11,7.40
2017,02,16,01,12,7.30
2017,02,16,01,13,7.30
2017,02,16,01,14,7.30
2017,02,16,01,15,7.30
2017,02,16,01,16,7.30
2017,02,16,01,17,7.30
2017,02,16,01,18,7.30
2017,02,16,01,19,7.30
2017,02,16,01,20,7.30
2017,02,16,01,21,7.30
2017,02,16,01,22,7.30
2017,02,16,01,23,7.30
2017,02,16,01,24,7.30
2017,02,16,01,25,7.30
2017,02,16,01,26,7.30
2017,02,16,01,27,7.30
2017,02,16,01,28,7.30
2017,02,16,01,29,7.30
2017,02,16,01,30,7.30
2017,02,16,01,31,7.30
2017,02,16,01,32,7.30
2017,02,16,01,33,7.30
2017,02,16,01,34,7.30
2017,02,16,01,35,7.30
2017,02,16,01,36,7.30
2017,02,16,01,37,7.30
2017,02,16,01,38,7.30
2017,02,16,01,39,7.30
2017,02,16,01,40,7.30
2017,02,16,01,41,7.30
2017,02,16,01,42,7.30
2017,02,16,01,43,7.30
2017,02,16,01,44,7.20
2017,02,16,01,45,7.20
2017,02,16,01,46,7.20
2017,02,16,01,47,7.20
2017,02,16,01,48,7.20
2017,02,16,01,49,7.20
2017,02,16,01,50,7.20
2017,02,16,01,51,7.20
2017,02,16,01,52,7.20
2017,02,16,01,53,7.10
2017,02,16,01,54,7.10
2017,02,16,01,55,7.10
2017,02,16,01,56,7.10
2017,02,16,01,57,7.10
2017,02,16,01,58,7.10
2017,02,16,01,59,7.10
2017,02,16,02,00,7.10
2017,02,16,02,01,7.10
2017,02,16,02,02,7.10
2017,02,16,02,03,7.10
2017,02,16,02,04,7.10
2017,02,16,02,05,7.10
2017,02,16,02,06,7.10
2017,02,16,02,07,7.00
2017,02,16,02,08,7.00
2017,02,16,02,09,7.00
2017,02,16,02,10,7.00
2017,02,16,02,11,7.00
2017,02,16,02,12,7.00
2017,02,16,02,13,7.00
2017,02,16,02,14,7.00
2017,02,16,02,15,7.00
2017,02,16,02,16,7.00
2017,02,16,02,17,7.00
2017,02,16,02,18,7.00
2017,02,16,02,19,7.00
2017,02,16,02,20,7.00
2017,02,16,02,21,7.00
2017,02,16,02,22,7.00
2017,02,16,02,23,6.90
2017,02,16,02,24,6.90
2017,02,16,02,25,6.90
2017,02,16,02,26,6.90
2017,02,16,02,27,6.90
2017,02,16,02,28,6.90
2017,02,16,02,29,6.90
2017,02,16,02,30,6.90
2017,02,16,02,31,7.00
2017,02,16,02,32,7.00
2017,02,16,02,33,7.00
2017,02,16,02,34,7.00
2017,02,16,02,35,7.00
2017,02,16,02,36,7.00
2017,02,16,02,37,7.00
2017,02,16,02,38,7.00
2017,02,16,02,39,7.00
2017,02,16,02,40,7.00
2017,02,16,02,41,7.00
2017,02,16,02,42,7.00
2017,02,16,02,43,7.10
2017,02,16,02,44,7.10
2017,02,16,02,45,7.10
2017,02,16,02,46,7.10
2017,02,16,02,47,7.10
2017,02,16,02,48,7.10
2017,02,16,02,49,7.10
2017,02,16,02,50,7.10
2017,02,16,02,51,7.10
2017,02,16,02,52,7.10
2017,02,16,02,53,7.10
2017,02,16,02,54,7.10
2017,02,16,02,55,7.20
2017,02,16,02,56,7.20
2017,02,16,02,57,7.20
2017,02,16,02,58,7.20
2017,02,16,02,59,7.20
2017,02,16,03,00,7.20
2017,02,16,03,01,7.20
2017,02,16,03,02,7.20
2017,02,16,03,03,7.20
2017,02,16,03,04,7.20
2017,02,16,03,05,7.20
2017,02,16,03,06,7.20
2017,02,16,03,07,7.20
2017,02,16,03,08,7.20
2017,02,16,03,09,7.20
2017,02,16,03,10,7.20
2017,02,16,03,11,7.20
2017,02,16,03,12,7.20
2017,02,16,03,13,7.20
2017,02,16,03,14,7.20
2017,02,16,03,15,7.20
2017,02,16,03,16,7.20
2017,02,16,03,17,7.20
2017,02,16,03,18,7.20
2017,02,16,03,19,7.20
2017,02,16,03,20,7.20
2017,02,16,03,21,7.20
2017,02,16,03,22,7.20
2017,02,16,03,23,7.20
2017,02,16,03,24,7.20
2017,02,16,03,25,7.20
2017,02,16,03,26,7.20
2017,02,16,03,27,7.30
2017,02,16,03,28,7.30
2017,02,16,03,29,7.30
2017,02,16,03,30,7.30
2017,02,16,03,31,7.30
2017,02,16,03,32,7.30
2017,02,16,03,33,7.30
2017,02,16,03,34,7.40
2017,02,16,03,35,7.40
2017,02,16,03,36,7.40
2017,02,16,03,37,7.40
2017,02,16,03,38,7.40
2017,02,16,03,39,7.40
2017,02,16,03,40,7.50
2017,02,16,03,41,7.50
2017,02,16,03,42,7.50
2017,02,16,03,43,7.50
2017,02,16,03,44,7.50
2017,02,16,03,45,7.60
2017,02,16,03,46,7.60
2017,02,16,03,47,7.60
2017,02,16,03,48,7.60
2017,02,16,03,49,7.60
2017,02,16,03,50,7.60
2017,02,16,03,51,7.60
2017,02,16,03,52,7.60
2017,02,16,03,53,7.60
2017,02,16,03,54,7.60
2017,02,16,03,55,7.60
2017,02,16,03,56,7.60
2017,02,16,03,57,7.60
2017,02,16,03,58,7.60
2017,02,16,03,59,7.60
2017,02,16,04,00,7.60
2017,02,16,04,01,7.60
2017,02,16,04,02,7.60
2017,02,16,04,03,7.60
2017,02,16,04,04,7.60
2017,02,16,04,05,7.60
2017,02,16,04,06,7.60
2017,02,16,04,07,7.60
2017,02,16,04,08,7.60
2017,02,16,04,09,7.60
2017,02,16,04,10,7.60
2017,02,16,04,11,7.60
2017,02,16,04,12,7.60
2017,02,16,04,13,7.60
2017,02,16,04,14,7.60
2017,02,16,04,15,7.60
2017,02,16,04,16,7.60
2017,02,16,04,17,7.60
2017,02,16,04,18,7.60
2017,02,16,04,19,7.60
2017,02,16,04,20,7.60
2017,02,16,04,21,7.60
2017,02,16,04,22,7.60
2017,02,16,04,23,7.60
2017,02,16,04,24,7.60
2017,02,16,04,25,7.60
2017,02,16,04,26,7.60
2017,02,16,04,27,7.60
2017,02,16,04,28,7.50
2017,02,16,04,29,7.50
2017,02,16,04,30,7.50
2017,02,16,04,31,7.50
2017,02,16,04,32,7.50
2017,02,16,04,33,7.50
2017,02,16,04,34,7.60
2017,02,16,04,35,7.60
2017,02,16,04,36,7.60
2017,02,16,04,37,7.60
2017,02,16,04,38,7.70
2017,02,16,04,39,7.70
2017,02,16,04,40,7.70
2017,02,16,04,41,7.70
2017,02,16,04,42,7.70
2017,02,16,04,43,7.80
2017,02,16,04,44,7.80
2017,02,16,04,45,7.80
2017,02,16,04,46,7.80
2017,02,16,04,47,7.90
2017,02,16,04,48,7.90
2017,02,16,04,49,7.90
2017,02,16,04,50,8.00
2017,02,16,04,51,8.00
2017,02,16,04,52,8.10
2017,02,16,04,53,8.10
2017,02,16,04,54,8.10
2017,02,16,04,55,8.10
2017,02,16,04,56,8.20
2017,02,16,04,57,8.20
2017,02,16,04,58,8.20
2017,02,16,04,59,8.20
2017,02,16,05,00,8.20
2017,02,16,05,01,8.30
2017,02,16,05,02,8.30
2017,02,16,05,03,8.30
2017,02,16,05,04,8.30
2017,02,16,05,05,8.30
2017,02,16,05,06,8.30
2017,02,16,05,07,8.40
2017,02,16,05,08,8.40
2017,02,16,05,09,8.40
2017,02,16,05,10,8.40
2017,02,16,05,11,8.40
2017,02,16,05,12,8.40
2017,02,16,05,13,8.40
2017,02,16,05,14,8.40
2017,02,16,05,15,8.40
2017,02,16,05,16,8.40
2017,02,16,05,17,8.40
2017,02,16,05,18,8.40
2017,02,16,05,19,8.40
2017,02,16,05,20,8.40
2017,02,16,05,21,8.50
2017,02,16,05,22,8.50
2017,02,16,05,23,8.50
2017,02,16,05,24,8.50
2017,02,16,05,25,8.50
2017,02,16,05,26,8.50
2017,02,16,05,27,8.50
2017,02,16,05,28,8.50
2017,02,16,05,29,8.40
2017,02,16,05,30,8.50
2017,02,16,05,31,8.40
2017,02,16,05,32,8.40
2017,02,16,05,33,8.40
2017,02,16,05,34,8.40
2017,02,16,05,35,8.40
2017,02,16,05,36,8.40
2017,02,16,05,37,8.40
2017,02,16,05,38,8.40
2017,02,16,05,39,8.40
2017,02,16,05,40,8.40
2017,02,16,05,41,8.40
2017,02,16,05,42,8.40
2017,02,16,05,43,8.40
2017,02,16,05,44,8.40
2017,02,16,05,45,8.40
2017,02,16,05,46,8.40
2017,02,16,05,47,8.40
2017,02,16,05,48,8.40
2017,02,16,05,49,8.40
2017,02,16,05,50,8.40
2017,02,16,05,51,8.40
2017,02,16,05,52,8.40
2017,02,16,05,53,8.40
2017,02,16,05,54,8.40
2017,02,16,05,55,8.40
2017,02,16,05,56,8.40
2017,02,16,05,57,8.40
2017,02,16,05,58,8.40
2017,02,16,05,59,8.40
2017,02,16,06,00,8.50
2017,02,16,06,01,8.50
2017,02,16,06,02,8.50
2017,02,16,06,03,8.50
2017,02,16,06,04,8.50
2017,02,16,06,05,8.60
2017,02,16,06,06,8.60
2017,02,16,06,07,8.60
2017,02,16,06,08,8.60
2017,02,16,06,09,8.60
2017,02,16,06,10,8.60
2017,02,16,06,11,8.60
2017,02,16,06,12,8.60
2017,02,16,06,13,8.60
2017,02,16,06,14,8.60
2017,02,16,06,15,8.60
2017,02,16,06,16,8.60
2017,02,16,06,17,8.60
2017,02,16,06,18,8.60
2017,02,16,06,19,8.60
2017,02,16,06,20,8.70
2017,02,16,06,21,8.70
2017,02,16,06,22,8.70
2017,02,16,06,23,8.80
2017,02,16,06,24,8.80
2017,02,16,06,25,8.80
2017,02,16,06,26,8.90
2017,02,16,06,27,8.90
2017,02,16,06,28,8.90
2017,02,16,06,29,8.90
2017,02,16,06,30,8.90
2017,02,16,06,31,8.90
2017,02,16,06,32,8.90
2017,02,16,06,33,9.00
2017,02,16,06,34,9.00
2017,02,16,06,35,9.00
2017,02,16,06,36,9.00
2017,02,16,06,37,9.00
2017,02,16,06,38,9.10
2017,02,16,06,39,9.10
2017,02,16,06,40,9.10
2017,02,16,06,41,9.10
2017,02,16,06,42,9.10
2017,02,16,06,43,9.10
2017,02,16,06,44,9.20
2017,02,16,06,45,9.20
2017,02,16,06,46,9.20
2017,02,16,06,47,9.20
2017,02,16,06,48,9.20
2017,02,16,06,49,9.30
2017,02,16,06,50,9.30
2017,02,16,06,51,9.30
2017,02,16,06,52,9.30
2017,02,16,06,53,9.30
2017,02,16,06,54,9.30
2017,02,16,06,55,9.30
2017,02,16,06,56,9.30
2017,02,16,06,57,9.40
2017,02,16,06,58,9.40
2017,02,16,06,59,9.40
2017,02,16,07,00,9.40
2017,02,16,07,01,9.40
2017,02,16,07,02,9.40
2017,02,16,07,03,9.50
2017,02,16,07,04,9.50
2017,02,16,07,05,9.50
2017,02,16,07,06,9.50
2017,02,16,07,07,9.50
2017,02,16,07,08,9.50
2017,02,16,07,09,9.60
2017,02,16,07,10,9.60
2017,02,16,07,11,9.60
2017,02,16,07,12,9.60
2017,02,16,07,13,9.60
2017,02,16,07,14,9.70
2017,02,16,07,15,9.70
2017,02,16,07,16,9.70
2017,02,16,07,17,9.70
2017,02,16,07,18,9.70
2017,02,16,07,19,9.80
2017,02,16,07,20,9.80
2017,02,16,07,21,9.80
2017,02,16,07,22,9.90
2017,02,16,07,23,9.90
2017,02,16,07,24,9.90
2017,02,16,07,25,9.90
2017,02,16,07,26,10.00
2017,02,16,07,27,10.00
2017,02,16,07,28,10.00
2017,02,16,07,29,10.10
2017,02,16,07,30,10.10
2017,02,16,07,31,10.10
2017,02,16,07,32,10.00
2017,02,16,07,33,10.00
2017,02,16,07,34,10.00
2017,02,16,07,35,10.00
2017,02,16,07,36,9.90
2017,02,16,07,37,9.90
2017,02,16,07,38,9.90
2017,02,16,07,39,9.90
2017,02,16,07,40,9.90
2017,02,16,07,41,9.90
2017,02,16,07,42,9.90
2017,02,16,07,43,9.90
2017,02,16,07,44,9.90
2017,02,16,07,45,9.90
2017,02,16,07,46,9.90
2017,02,16,07,47,10.00
2017,02,16,07,48,10.00
2017,02,16,07,49,10.00
2017,02,16,07,50,10.00
2017,02,16,07,51,10.00
2017,02,16,07,52,10.00
2017,02,16,07,53,10.10
2017,02,16,07,54,10.10
2017,02,16,07,55,10.10
2017,02,16,07,56,10.20
2017,02,16,07,57,10.20
2017,02,16,07,58,10.30
2017,02,16,07,59,10.30
2017,02,16,08,00,10.40
2017,02,16,08,01,10.40
2017,02,16,08,02,10.50
2017,02,16,08,03,10.50
2017,02,16,08,04,10.60
2017,02,16,08,05,10.60
2017,02,16,08,06,10.70
2017,02,16,08,07,10.70
2017,02,16,08,08,10.80
2017,02,16,08,09,10.80
2017,02,16,08,10,10.80
2017,02,16,08,11,10.90
2017,02,16,08,12,10.90
2017,02,16,08,13,11.00
2017,02,16,08,14,11.00
2017,02,16,08,15,11.10
2017,02,16,08,16,11.10
2017,02,16,08,17,11.20
2017,02,16,08,18,11.20
2017,02,16,08,19,11.30
2017,02,16,08,20,11.30
2017,02,16,08,21,11.40
2017,02,16,08,22,11.40
2017,02,16,08,23,11.50
2017,02,16,08,24,11.50
2017,02,16,08,25,11.50
2017,02,16,08,26,11.60
2017,02,16,08,27,11.60
2017,02,16,08,28,11.60
2017,02,16,08,29,11.60
2017,02,16,08,30,11.50
2017,02,16,08,31,11.50
2017,02,16,08,32,11.50
2017,02,16,08,33,11.50
2017,02,16,08,34,11.50
2017,02,16,08,35,11.40
2017,02,16,08,36,11.40
2017,02,16,08,37,11.40
2017,02,16,08,38,11.40
2017,02,16,08,39,11.40
2017,02,16,08,40,11.40
2017,02,16,08,41,11.50
2017,02,16,08,42,11.40
2017,02,16,08,43,11.40
2017,02,16,08,44,11.40
2017,02,16,08,45,11.40
2017,02,16,08,46,11.40
2017,02,16,08,47,11.40
2017,02,16,08,48,11.40
2017,02,16,08,49,11.40
2017,02,16,08,50,11.40
2017,02,16,08,51,11.40
2017,02,16,08,52,11.40
2017,02,16,08,53,11.30
2017,02,16,08,54,11.30
2017,02,16,08,55,11.30
2017,02,16,08,56,11.20
2017,02,16,08,57,11.20
2017,02,16,08,58,11.20
2017,02,16,08,59,11.10
2017,02,16,09,00,11.10
2017,02,16,09,01,11.00
2017,02,16,09,02,11.00
2017,02,16,09,03,10.90
2017,02,16,09,04,10.90
2017,02,16,09,05,10.80
2017,02,16,09,06,10.80
2017,02,16,09,07,10.70
2017,02,16,09,08,10.70
2017,02,16,09,09,10.60
2017,02,16,09,10,10.60
2017,02,16,09,11,10.50
2017,02,16,09,12,10.40
2017,02,16,09,13,10.40
2017,02,16,09,14,10.40
2017,02,16,09,15,10.30
2017,02,16,09,16,10.30
2017,02,16,09,17,10.20
2017,02,16,09,18,10.20
2017,02,16,09,19,10.10
2017,02,16,09,20,10.10
2017,02,16,09,21,10.10
2017,02,16,09,22,10.10
2017,02,16,09,23,10.10
2017,02,16,09,24,10.00
2017,02,16,09,25,10.00
2017,02,16,09,26,10.00
2017,02,16,09,27,9.90
2017,02,16,09,28,9.90
2017,02,16,09,29,9.90
2017,02,16,09,30,9.90
2017,02,16,09,31,9.90
2017,02,16,09,32,9.90
2017,02,16,09,33,9.90
2017,02,16,09,34,9.90
2017,02,16,09,35,9.90
2017,02,16,09,36,9.90
2017,02,16,09,37,9.90
2017,02,16,09,38,9.90
2017,02,16,09,39,9.90
2017,02,16,09,40,9.90
2017,02,16,09,41,9.90
2017,02,16,09,42,9.90
2017,02,16,09,43,9.90
2017,02,16,09,44,9.90
2017,02,16,09,45,9.90
2017,02,16,09,46,9.90
2017,02,16,09,47,9.90
2017,02,16,09,48,9.90
2017,02,16,09,49,9.90
2017,02,16,09,50,9.90
2017,02,16,09,51,9.90
2017,02,16,09,52,9.90
2017,02,16,09,53,9.90
2017,02,16,09,54,9.90
2017,02,16,09,55,9.90
2017,02,16,09,56,9.90
2017,02,16,09,57,9.90
2017,02,16,09,58,9.90
2017,02,16,09,59,9.90
2017,02,16,10,00,9.80
2017,02,16,10,01,9.80
2017,02,16,10,02,9.80
2017,02,16,10,03,9.70
2017,02,16,10,04,9.70
2017,02,16,10,05,9.70
2017,02,16,10,06,9.70
2017,02,16,10,07,9.70
2017,02,16,10,08,9.70
2017,02,16,10,09,9.70
2017,02,16,10,10,9.70
2017,02,16,10,11,9.60
2017,02,16,10,12,9.60
2017,02,16,10,13,9.60
2017,02,16,10,14,9.60
2017,02,16,10,15,9.60
2017,02,16,10,16,9.50
2017,02,16,10,17,9.50
2017,02,16,10,18,9.40
2017,02,16,10,19,9.40
2017,02,16,10,20,9.30
2017,02,16,10,21,9.30
2017,02,16,10,22,9.30
2017,02,16,10,23,9.30
2017,02,16,10,24,9.20
2017,02,16,10,25,9.20
2017,02,16,10,26,9.20
2017,02,16,10,27,9.20
2017,02,16,10,28,9.10
2017,02,16,10,29,9.10
2017,02,16,10,30,9.10
2017,02,16,10,31,9.10
2017,02,16,10,32,9.00
2017,02,16,10,33,9.00
2017,02,16,10,34,9.00
2017,02,16,10,35,9.00
2017,02,16,10,36,9.00
2017,02,16,10,37,8.90
2017,02,16,10,38,8.90
2017,02,16,10,39,8.90
2017,02,16,10,40,8.80
2017,02,16,10,41,8.80
2017,02,16,10,42,8.80
2017,02,16,10,43,8.70
2017,02,16,10,44,8.70
2017,02,16,10,45,8.60
2017,02,16,10,46,8.50
2017,02,16,10,47,8.50
2017,02,16,10,48,8.40
2017,02,16,10,49,8.40
2017,02,16,10,50,8.30
2017,02,16,10,51,8.30
2017,02,16,10,52,8.30
2017,02,16,10,53,8.20
2017,02,16,10,54,8.20
2017,02,16,10,55,8.10
2017,02,16,10,56,7.90
2017,02,16,10,57,7.80
2017,02,16,10,58,7.50
2017,02,16,10,59,7.40
2017,02,16,11,00,7.20
2017,02,16,11,01,7.10
2017,02,16,11,02,7.00
2017,02,16,11,03,6.90
2017,02,16,11,04,6.80
2017,02,16,11,05,6.80
2017,02,16,11,06,6.70
2017,02,16,11,07,6.70
2017,02,16,11,08,6.70
2017,02,16,11,09,6.70
2017,02,16,11,10,6.70
2017,02,16,11,11,6.60
2017,02,16,11,12,6.60
2017,02,16,11,13,6.60
2017,02,16,11,14,6.60
2017,02,16,11,15,6.60
2017,02,16,11,16,6.60
2017,02,16,11,17,6.60
2017,02,16,11,18,6.60
2017,02,16,11,19,6.60
2017,02,16,11,20,6.60
2017,02,16,11,21,6.60
2017,02,16,11,22,6.60
2017,02,16,11,23,6.60
2017,02,16,11,24,6.60
2017,02,16,11,25,6.60
2017,02,16,11,26,6.60
2017,02,16,11,27,6.60
2017,02,16,11,28,6.70
2017,02,16,11,29,6.70
2017,02,16,11,30,6.70
2017,02,16,11,31,6.70
2017,02,16,11,32,6.70
2017,02,16,11,33,6.70
2017,02,16,11,34,6.70
2017,02,16,11,35,6.70
2017,02,16,11,36,6.70
2017,02,16,11,37,6.60
2017,02,16,11,38,6.60
2017,02,16,11,39,6.50
2017,02,16,11,40,6.40
2017,02,16,11,41,6.40
2017,02,16,11,42,6.40
2017,02,16,11,43,6.40
2017,02,16,11,44,6.40
2017,02,16,11,45,6.40
2017,02,16,11,46,6.40
2017,02,16,11,47,6.50
2017,02,16,11,48,6.50
2017,02,16,11,49,6.60
2017,02,16,11,50,6.60
2017,02,16,11,51,6.70
2017,02,16,11,52,6.70
2017,02,16,11,53,6.80
2017,02,16,11,54,6.80
2017,02,16,11,55,6.80
2017,02,16,11,56,6.80
2017,02,16,11,57,6.80
2017,02,16,11,58,6.80
2017,02,16,11,59,6.80
2017,02,16,12,00,6.80
2017,02,16,12,01,6.80
2017,02,16,12,02,6.80
2017,02,16,12,03,6.80
2017,02,16,12,04,6.80
2017,02,16,12,05,6.80
2017,02,16,12,06,6.80
2017,02,16,12,07,6.80
2017,02,16,12,08,6.80
2017,02,16,12,09,6.80
2017,02,16,12,10,6.80
2017,02,16,12,11,6.80
2017,02,16,12,12,6.70
2017,02,16,12,13,6.70
2017,02,16,12,14,6.70
2017,02,16,12,15,6.60
2017,02,16,12,16,6.50
2017,02,16,12,17,6.50
2017,02,16,12,18,6.40
2017,02,16,12,19,6.30
2017,02,16,12,20,6.30
2017,02,16,12,21,6.30
2017,02,16,12,22,6.20
2017,02,16,12,23,6.20
2017,02,16,12,24,6.20
2017,02,16,12,25,6.10
2017,02,16,12,26,6.10
2017,02,16,12,27,6.10
2017,02,16,12,28,6.00
2017,02,16,12,29,6.00
2017,02,16,12,30,6.00
2017,02,16,12,31,5.90
2017,02,16,12,32,5.90
2017,02,16,12,33,5.90
2017,02,16,12,34,5.90
2017,02,16,12,35,5.80
2017,02,16,12,36,5.80
2017,02,16,12,37,5.80
2017,02,16,12,38,5.80
2017,02,16,12,39,5.70
2017,02,16,12,40,5.70
2017,02,16,12,41,5.60
2017,02,16,12,42,5.50
2017,02,16,12,43,5.50
2017,02,16,12,44,5.40
2017,02,16,12,45,5.40
2017,02,16,12,46,5.30
2017,02,16,12,47,5.30
2017,02,16,12,48,5.20
2017,02,16,12,49,5.20
2017,02,16,12,50,5.20
2017,02,16,12,51,5.20
2017,02,16,12,52,5.20
2017,02,16,12,53,5.10
2017,02,16,12,54,5.10
2017,02,16,12,55,5.10
2017,02,16,12,56,5.10
2017,02,16,12,57,5.10
2017,02,16,12,58,5.10
2017,02,16,12,59,5.10
2017,02,16,13,00,5.10
2017,02,16,13,01,5.10
2017,02,16,13,02,5.10
2017,02,16,13,03,5.10
2017,02,16,13,04,5.10
2017,02,16,13,05,5.00
2017,02,16,13,06,5.00
2017,02,16,13,07,5.00
2017,02,16,13,08,5.00
2017,02,16,13,09,5.00
2017,02,16,13,10,5.00
2017,02,16,13,11,5.00
2017,02,16,13,12,5.00
2017,02,16,13,13,5.00
2017,02,16,13,14,5.00
2017,02,16,13,15,5.00
2017,02,16,13,16,5.00
2017,02,16,13,17,5.00
2017,02,16,13,18,4.90
2017,02,16,13,19,4.90
2017,02,16,13,20,4.90
2017,02,16,13,21,4.80
2017,02,16,13,22,4.70
2017,02,16,13,23,4.60
2017,02,16,13,24,4.50
2017,02,16,13,25,4.40
2017,02,16,13,26,4.30
2017,02,16,13,27,4.20
2017,02,16,13,28,4.20
2017,02,16,13,29,4.10
2017,02,16,13,30,4.10
2017,02,16,13,31,4.10
2017,02,16,13,32,4.00
2017,02,16,13,33,4.00
2017,02,16,13,34,4.00
2017,02,16,13,35,3.90
2017,02,16,13,36,3.90
2017,02,16,13,37,3.90
2017,02,16,13,38,3.90
2017,02,16,13,39,3.90
2017,02,16,13,40,3.90
2017,02,16,13,41,3.90
2017,02,16,13,42,3.90
2017,02,16,13,43,3.90
2017,02,16,13,44,3.90
2017,02,16,13,45,4.00
2017,02,16,13,46,4.00
2017,02,16,13,47,4.00
2017,02,16,13,48,4.00
2017,02,16,13,49,4.00
2017,02,16,13,50,3.90
2017,02,16,13,51,3.90
2017,02,16,13,52,3.90
2017,02,16,13,53,3.90
2017,02,16,13,54,3.90
2017,02,16,13,55,3.90
2017,02,16,13,56,3.90
2017,02,16,13,57,3.90
2017,02,16,13,58,3.90
2017,02,16,13,59,3.90
2017,02,16,14,00,4.00
2017,02,16,14,01,4.00
2017,02,16,14,02,4.00
2017,02,16,14,03,4.00
2017,02,16,14,04,4.00
2017,02,16,14,05,3.90
2017,02,16,14,06,3.90
2017,02,16,14,07,3.90
2017,02,16,14,08,3.80
2017,02,16,14,09,3.80
2017,02,16,14,10,3.70
2017,02,16,14,11,3.70
2017,02,16,14,12,3.70
2017,02,16,14,13,3.70
2017,02,16,14,14,3.70
2017,02,16,14,15,3.80
2017,02,16,14,16,3.80
2017,02,16,14,17,3.80
2017,02,16,14,18,3.90
2017,02,16,14,19,3.90
2017,02,16,14,20,3.90
2017,02,16,14,21,3.90
2017,02,16,14,22,4.00
2017,02,16,14,23,4.00
2017,02,16,14,24,4.00
2017,02,16,14,25,4.00
2017,02,16,14,26,4.00
2017,02,16,14,27,3.90
2017,02,16,14,28,3.90
2017,02,16,14,29,3.90
2017,02,16,14,30,3.90
2017,02,16,14,31,3.90
2017,02,16,14,32,3.90
2017,02,16,14,33,3.90
2017,02,16,14,34,3.90
2017,02,16,14,35,3.90
2017,02,16,14,36,3.80
2017,02,16,14,37,3.80
2017,02,16,14,38,3.80
2017,02,16,14,39,3.80
2017,02,16,14,40,3.80
2017,02,16,14,41,3.70
2017,02,16,14,42,3.60
2017,02,16,14,43,3.50
2017,02,16,14,44,3.40
2017,02,16,14,45,3.30
2017,02,16,14,46,3.20
2017,02,16,14,47,3.10
2017,02,16,14,48,3.10
2017,02,16,14,49,3.10
2017,02,16,14,50,3.20
2017,02,16,14,51,3.20
2017,02,16,14,52,3.20
2017,02,16,14,53,3.20
2017,02,16,14,54,3.20
2017,02,16,14,55,3.20
2017,02,16,14,56,3.20
2017,02,16,14,57,3.20
2017,02,16,14,58,3.20
2017,02,16,14,59,3.20
2017,02,16,15,00,3.20
2017,02,16,15,01,3.20
2017,02,16,15,02,3.20
2017,02,16,15,03,3.20
2017,02,16,15,04,3.20
2017,02,16,15,05,3.20
2017,02,16,15,06,3.10
2017,02,16,15,07,3.10
2017,02,16,15,08,3.10
2017,02,16,15,09,3.10
2017,02,16,15,10,3.10
2017,02,16,15,11,3.00
2017,02,16,15,12,3.00
2017,02,16,15,13,3.00
2017,02,16,15,14,3.00
2017,02,16,15,15,2.90
2017,02,16,15,16,2.90
2017,02,16,15,17,2.80
2017,02,16,15,18,2.70
2017,02,16,15,19,2.70
2017,02,16,15,20,2.50
2017,02,16,15,21,2.40
2017,02,16,15,22,2.30
2017,02,16,15,23,2.30
2017,02,16,15,24,2.30
2017,02,16,15,25,2.30
2017,02,16,15,26,2.30
2017,02,16,15,27,2.30
2017,02,16,15,28,2.30
2017,02,16,15,29,2.40
2017,02,16,15,30,2.40
2017,02,16,15,31,2.50
2017,02,16,15,32,2.50
2017,02,16,15,33,2.60
2017,02,16,15,34,2.60
2017,02,16,15,35,2.70
2017,02,16,15,36,2.70
2017,02,16,15,37,2.80
2017,02,16,15,38,2.80
2017,02,16,15,39,2.80
2017,02,16,15,40,2.80
2017,02,16,15,41,2.80
2017,02,16,15,42,2.80
2017,02,16,15,43,2.80
2017,02,16,15,44,2.80
2017,02,16,15,45,2.80
2017,02,16,15,46,2.90
2017,02,16,15,47,2.90
2017,02,16,15,48,3.00
2017,02,16,15,49,3.00
2017,02,16,15,50,3.00
2017,02,16,15,51,3.00
2017,02,16,15,52,3.00
2017,02,16,15,53,3.00
2017,02,16,15,54,3.10
2017,02,16,15,55,3.10
2017,02,16,15,56,3.10
2017,02,16,15,57,3.20
2017,02,16,15,58,3.20
2017,02,16,15,59,3.10
2017,02,16,16,00,3.10
2017,02,16,16,01,3.10
2017,02,16,16,02,3.10
2017,02,16,16,03,3.10
2017,02,16,16,04,3.10
2017,02,16,16,05,3.10
2017,02,16,16,06,3.10
2017,02,16,16,07,3.10
2017,02,16,16,08,3.10
2017,02,16,16,09,3.10
2017,02,16,16,10,3.20
2017,02,16,16,11,3.20
2017,02,16,16,12,3.20
2017,02,16,16,13,3.30
2017,02,16,16,14,3.30
2017,02,16,16,15,3.40
2017,02,16,16,16,3.40
2017,02,16,16,17,3.40
2017,02,16,16,18,3.40
2017,02,16,16,19,3.40
2017,02,16,16,20,3.40
2017,02,16,16,21,3.40
2017,02,16,16,22,3.40
2017,02,16,16,23,3.50
2017,02,16,16,24,3.50
2017,02,16,16,25,3.60
2017,02,16,16,26,3.60
2017,02,16,16,27,3.60
2017,02,16,16,28,3.60
2017,02,16,16,29,3.60
2017,02,16,16,30,3.50
2017,02,16,16,31,3.50
2017,02,16,16,32,3.50
2017,02,16,16,33,3.50
2017,02,16,16,34,3.50
2017,02,16,16,35,3.50
2017,02,16,16,36,3.60
2017,02,16,16,37,3.60
2017,02,16,16,38,3.60
2017,02,16,16,39,3.60
2017,02,16,16,40,3.60
2017,02,16,16,41,3.60
2017,02,16,16,42,3.70
2017,02,16,16,43,3.70
2017,02,16,16,44,3.80
2017,02,16,16,45,3.90
2017,02,16,16,46,4.00
2017,02,16,16,47,4.10
2017,02,16,16,48,4.10
2017,02,16,16,49,4.20
2017,02,16,16,50,4.30
2017,02,16,16,51,4.30
2017,02,16,16,52,4.30
2017,02,16,16,53,4.30
2017,02,16,16,54,4.30
2017,02,16,16,55,4.30
2017,02,16,16,56,4.30
2017,02,16,16,57,4.30
2017,02,16,16,58,4.30
2017,02,16,16,59,4.30
2017,02,16,17,00,4.20
2017,02,16,17,01,4.20
2017,02,16,17,02,4.20
2017,02,16,17,03,4.20
2017,02,16,17,04,4.20
2017,02,16,17,05,4.20
2017,02,16,17,06,4.20
2017,02,16,17,07,4.20
2017,02,16,17,08,4.10
2017,02,16,17,09,4.10
2017,02,16,17,10,4.10
2017,02,16,17,11,4.20
2017,02,16,17,12,4.20
2017,02,16,17,13,4.20
2017,02,16,17,14,4.20
2017,02,16,17,15,4.20
2017,02,16,17,16,4.20
2017,02,16,17,17,4.30
2017,02,16,17,18,4.30
2017,02,16,17,19,4.30
2017,02,16,17,20,4.40
2017,02,16,17,21,4.40
2017,02,16,17,22,4.50
2017,02,16,17,23,4.50
2017,02,16,17,24,4.60
2017,02,16,17,25,4.60
2017,02,16,17,26,4.70
2017,02,16,17,27,4.70
2017,02,16,17,28,4.70
2017,02,16,17,29,4.70
2017,02,16,17,30,4.60
2017,02,16,17,31,4.50
2017,02,16,17,32,4.50
2017,02,16,17,33,4.40
2017,02,16,17,34,4.30
2017,02,16,17,35,4.30
2017,02,16,17,36,4.30
2017,02,16,17,37,4.30
2017,02,16,17,38,4.30
2017,02,16,17,39,4.20
2017,02,16,17,40,4.20
2017,02,16,17,41,4.20
2017,02,16,17,42,4.20
2017,02,16,17,43,4.20
2017,02,16,17,44,4.30
2017,02,16,17,45,4.30
2017,02,16,17,46,4.30
2017,02,16,17,47,4.30
2017,02,16,17,48,4.30
2017,02,16,17,49,4.30
2017,02,16,17,50,4.30
2017,02,16,17,51,4.30
2017,02,16,17,52,4.30
2017,02,16,17,53,4.30
2017,02,16,17,54,4.30
2017,02,16,17,55,4.30
2017,02,16,17,56,4.30
2017,02,16,17,57,4.30
2017,02,16,17,58,4.30
2017,02,16,17,59,4.20
2017,02,16,18,00,4.20
2017,02,16,18,01,4.20